Regional Weather Roundup
Issued by NWS

Home | Current Version | Previous Version | Graphics & Text | Print | Product List | Glossary Off
Versions: 1 2 3 4 5 6 7 8 9 10 11 12 13 14 15 16 17 18 19 20 21 22 23 24 25 26 27 28 29 30 31 32 33 34 35 36 37 38 39 40 41 42 43 44 45 46 47 48 49 50

000
ASUS43 KDMX 202207
RWRIA

WEATHER ROUNDUP FOR IOWA
NATIONAL WEATHER SERVICE DES MOINES IA
500 PM CDT WED AUG 20 2014

NOTE: "FAIR" INDICATES FEW OR NO CLOUDS BELOW 12,000 FEET WITH NO
SIGNIFICANT WEATHER AND/OR OBSTRUCTIONS TO VISIBILITY.

* - THESE STATIONS ARE NOT NWS STATIONS...THUS NOT UNDER NWS
QUALITY CONTROL.  THEY ALSO DO NOT REPORT WEATHER SUCH
AS PRECIPITATION OR FOG.

IAZ001>003-012>014-020>022-031>034-043>046-202300-
   NORTHWEST IOWA

CITY           SKY/WX    TMP DP  RH WIND       PRES   REMARKS
CARROLL *      SUNNY     77  73  88 SE5       29.84S
CHEROKEE *     CLOUDY    73  72  94 S9        29.79F
DENISON *      SUNNY     82  73  74 SE10G18   29.81S HX  88
LE MARS *      SUNNY     75  72  88 S9        29.79S
ORANGE CITY *  CLOUDY    75  70  83 S5        29.80R
SHELDON *      SUNNY     73  68  83 SE7       29.81R
SIOUX CITY     CLOUDY    80  73  79 SE10      29.77F HX  84
SPENCER        CLOUDY    76  68  76 SE12      29.82F
STORM LAKE *   SUNNY     72  72 100 SE10G17   29.82F
$$

IAZ055>058-069>071-079>083-090>094-202300-
   SOUTHWEST IOWA

CITY           SKY/WX    TMP DP  RH WIND       PRES   REMARKS
ATLANTIC *     SUNNY     86  75  70 S12G20    29.83S HX  95
AUDUBON *      SUNNY     86  79  79 SE7       29.86R HX  99
CLARINDA *     SUNNY     88  77  70 SE13G18   29.84F HX 100
COUNCIL BLFS * SUNNY     84  79  84 SE12G21   29.80S HX  96
CRESTON *      MOSUNNY   84  75  74 SE15G21   29.87S HX  92
HARLAN  *      SUNNY     84  75  74 S15       29.85S HX  92
LAMONI         MOSUNNY   85  73  67 SE13G21   29.88S HX  91
RED OAK *      SUNNY     88  77  70 SE16      29.82F HX 100
SHENANDOAH *   SUNNY     88  75  66 SE20G25   29.81F HX  97
$$

IAZ047>049-059>061-072>074-084-202300-
   CENTRAL IOWA

CITY           SKY/WX    TMP DP  RH WIND       PRES   REMARKS
AMES           CLOUDY    75  70  84 SE7       29.85F
ANKENY *       CLOUDY    81  72  74 S7        29.85F HX  84
CHARITON *     SUNNY     84  73  70 S13       29.89R HX  91
DES MOINES     CLOUDY    83  71  67 S9        29.86R HX  87
GRINNELL*      CLOUDY    77  70  78 SE5       29.90S
KNOXVILLE *    SUNNY     82  72  69 S10       29.86S HX  87
MARSHALLTOWN   CLOUDY    74  68  81 S8        29.86S
PELLA *        CLOUDY    82  72  69 S6        29.89S HX  87
PERRY *          N/A     79  72  78 S8        29.84F HX  82
$$

IAZ004>006-015-016-023>025-035-036-202300-
   NORTH CENTRAL IOWA

CITY           SKY/WX    TMP DP  RH WIND       PRES   REMARKS
ALGONA *       SUNNY     75  72  88 SE3       29.86S
CLARION *      MOSUNNY   75  68  78 SE6       29.87R
ESTHERVILLE    PTSUNNY   75  70  84 SE8       29.84S
FORT DODGE *   CLOUDY    73  70  88 S7        29.87R
MASON CITY     CLOUDY    76  67  73 S7        29.89R
FOREST CITY *  SUNNY     75  68  78 S6        29.87R
IOWA FALLS *     N/A     73  64  73 SW5       29.89R
$$

IAZ007>011-017>019-026>030-037>042-050>054-066-202300-
   NORTHEAST IOWA

CITY           SKY/WX    TMP DP  RH WIND       PRES   REMARKS
CEDAR RAPIDS   CLOUDY    73  69  87 S9        29.88R
CHARLES CITY * SUNNY     77  68  73 S9        29.89R
CLINTON *      PTSUNNY   77  70  78 W10       29.95R
DECORAH *      SUNNY     81  66  61 S7        29.87R HX  83
DUBUQUE        PTSUNNY   79  68  69 SW14      29.90R HX  81
MONTICELLO *   SUNNY     73  70  88 VRB3      29.89F
OELWEIN *      PTSUNNY   73  68  83 SW8       29.90R
WATERLOO       CLOUDY    74  67  78 S3        29.88R
$$

IAZ064-065-067-068-078-202300-
   EAST CENTRAL IOWA

CITY           SKY/WX    TMP DP  RH WIND       PRES   REMARKS
DAVENPORT      CLOUDY    75  66  73 W13       29.93R
IOWA CITY      CLOUDY    74  69  85 S6        29.91F
MT. PLEASANT * CLOUDY    81  68  65 S5        29.91S HX  83
MUSCATINE *    SUNNY     77  72  83 S5        29.91F
QUAD CITIES    CLOUDY    75  68  78 SW12      29.92R
$$

IAZ062-063-075>077-085>089-095>099-202300-
   SOUTHEAST IOWA

CITY           SKY/WX    TMP DP  RH WIND       PRES   REMARKS
BURLINGTON     PTSUNNY   82  72  71 S12       29.91R HX  87
FAIRFIELD *    SUNNY     81  70  69 S7        29.91R HX  84
FORT MADISON * SUNNY     84  73  70 S13       29.92R HX  91
KEOKUK *       SUNNY     82  73  74 S12G17    29.90S HX  88
OSKALOOSA *      N/A     81  73  78 SE5       29.90R HX  85
CENTERVILLE *  SUNNY     84  75  74 S12       29.91S HX  92
OTTUMWA        PTSUNNY   81  71  71 S5        29.89R HX  85
WASHINGTON *   SUNNY     77  72  83 S7        29.91F
$$

ABBREVIATIONS USED IN REMARKS
   TC - TEMPERATURES IN CELSIUS
  WCI - WIND CHILL INDEX
   HX - HEAT INDEX
  VSB - VISIBILITY
$$



USA.gov is the U.S. government's official web portal to all federal, state and local government web resources and services.